Altoona, PA

2:24 AM EST on November 18, 2019 (GMT -0500)
Altoona-Blair County

Weather History for KAOO - September, 2019

Change the Weather History Date:

Sunday, September 15, 2019

  Actual Average Record
Temperature  
Mean Temperature 66 °F 62 °F  
Max Temperature 81 °F 73 °F 92 °F (1998)
Min Temperature 51 °F 52 °F 35 °F (2001)
Degree Days  
Heating Degree Days 0 4  
Month to date heating degree days 8 42  
Since 1 July heating degree days 17 74  
Cooling Degree Days 1 1  
Month to date cooling degree days 51 34  
Year to date cooling degree days 696 513  
Growing Degree Days 16 (Base 50)    
Moisture  
Dew Point 54 °F    
Average Humidity 71    
Maximum Humidity 100    
Minimum Humidity 42    
Precipitation  
Precipitation 0.00 in 0.12 in 1.17 in (1981)
Month to date precipitation 1.00 1.75  
Year to date precipitation 30.69 25.68  
Sea Level Pressure  
Sea Level Pressure 30.21 in    
Wind  
Wind Speed 2 mph (WSW)    
Max Wind Speed 9 mph    
Max Gust Speed 12 mph    
Visibility 5 miles    
Events Fog    
T = Trace of Precipitation, MM = Missing Value Source: NWS Daily Summary

Daily Weather History Graph

Daily Weather History Graph

Search for Another Location

Airport or City:

Astronomy

Sep. 15, 2019 Rise Set
Actual Time 6:53 AM EDT 7:22 PM EDT
Civil Twilight 6:26 AM EDT 7:49 PM EDT
Nautical Twilight 5:54 AM EDT 8:21 PM EDT
Astronomical Twilight 5:21 AM EDT 8:54 PM EDT
Moon 8:29 PM EDT (9/15) 8:02 AM EDT (9/15)
Length of Visible Light 13h 23m
Length of Day
12h 28m
Full, 98% of the Moon is Illuminated
Sep 15
Full
Sep 21
Last Quarter
Sep 28
New
Oct 5
First Quarter
Oct 13
Full

Hourly Weather History & Observations

Time (EDT) Temp. Heat Index Dew Point Humidity Pressure Visibility Wind Dir Wind Speed Gust Speed Precip Events Conditions
12:53 AM 59.0 °F - 55.0 °F 87% 30.22 in 10.0 mi WNW 4.6 mph - N/A   Clear
1:53 AM 55.9 °F - 54.0 °F 93% 30.23 in 10.0 mi Calm Calm - N/A   Clear
2:53 AM 55.9 °F - 53.1 °F 90% 30.22 in 4.0 mi Calm Calm - N/A   Clear
3:46 AM 54.0 °F - 53.1 °F 97% 30.23 in 1.8 mi Calm Calm - N/A   Clear
3:53 AM 54.0 °F - 52.0 °F 93% 30.22 in 1.5 mi Calm Calm - N/A   Clear
4:05 AM 53.1 °F - 52.0 °F 96% 30.24 in 0.8 mi SSW 3.5 mph - N/A   Clear
4:18 AM 55.0 °F - 53.1 °F 93% 30.24 in 3.0 mi WSW 3.5 mph - N/A   Clear
4:25 AM 55.0 °F - 53.1 °F 93% 30.24 in 1.5 mi West 3.5 mph - N/A   Clear
4:30 AM 54.0 °F - 53.1 °F 97% 30.24 in 0.5 mi West 3.5 mph - N/A Fog Fog
4:39 AM 53.1 °F - 52.0 °F 96% 30.24 in 0.8 mi Calm Calm - N/A   Mist
4:53 AM 53.1 °F - 52.0 °F 96% 30.23 in 1.5 mi SSE 3.5 mph - N/A   Partly Cloudy
5:10 AM 53.1 °F - 52.0 °F 96% 30.24 in 3.0 mi Calm Calm - N/A   Clear
5:37 AM 54.0 °F - 52.0 °F 93% 30.24 in 1.5 mi Calm Calm - N/A   Clear
5:43 AM 52.0 °F - 51.1 °F 97% 30.24 in 0.5 mi Calm Calm - N/A Fog Fog
6:07 AM 53.1 °F - 51.1 °F 93% 30.24 in 1.0 mi SW 4.6 mph - N/A   Clear
6:17 AM 53.1 °F - 52.0 °F 96% 30.24 in 0.5 mi SW 4.6 mph - N/A Fog Fog
6:26 AM 53.1 °F - 51.1 °F 93% 30.24 in 1.0 mi SSW 4.6 mph - N/A   Clear
6:30 AM 52.0 °F - 51.1 °F 97% 30.24 in 3.0 mi SW 4.6 mph - N/A   Clear
6:44 AM 53.1 °F - 50.0 °F 89% 30.24 in 1.5 mi WNW 3.5 mph - N/A   Partly Cloudy
6:46 AM 53.1 °F - 50.0 °F 89% 30.24 in 0.8 mi WNW 4.6 mph - N/A   Mist
6:53 AM 52.0 °F - 48.9 °F 89% 30.23 in 0.2 mi West 3.5 mph - N/A Fog Fog
7:47 AM 55.4 °F - 55.4 °F 100% 30.24 in 1.0 mi Calm Calm - N/A   Mist
7:53 AM 55.9 °F - 55.0 °F 97% 30.23 in 1.5 mi Calm Calm - N/A   Scattered Clouds
8:04 AM 57.9 °F - 55.9 °F 93% 30.24 in 4.0 mi West 3.5 mph - N/A   Partly Cloudy
8:53 AM 61.0 °F - 57.9 °F 90% 30.23 in 9.0 mi Calm Calm - N/A   Clear
9:53 AM 66.0 °F - 57.0 °F 73% 30.24 in 10.0 mi Calm Calm - N/A   Clear
10:53 AM 69.1 °F - 57.0 °F 65% 30.25 in 10.0 mi NW 4.6 mph - N/A   Clear
11:53 AM 72.0 °F - 55.0 °F 55% 30.23 in 10.0 mi Variable 4.6 mph - N/A   Clear
12:53 PM 73.9 °F - 53.1 °F 48% 30.20 in 10.0 mi Calm Calm - N/A   Clear
1:53 PM 75.9 °F - 55.0 °F 48% 30.20 in 10.0 mi Variable 5.8 mph - N/A   Clear
2:53 PM 78.1 °F - 55.9 °F 46% 30.17 in 10.0 mi SW 3.5 mph - N/A   Clear
3:53 PM 78.1 °F - 55.9 °F 46% 30.15 in 10.0 mi Variable 3.5 mph - N/A   Clear
4:53 PM 80.1 °F 80.1 °F 55.0 °F 42% 30.14 in 10.0 mi Variable 3.5 mph - N/A   Clear
5:53 PM 78.1 °F - 55.0 °F 45% 30.14 in 10.0 mi NW 5.8 mph - N/A   Scattered Clouds
6:53 PM 72.0 °F - 59.0 °F 64% 30.14 in 10.0 mi NNE 4.6 mph - N/A   Clear
7:53 PM 68.0 °F - 57.9 °F 70% 30.13 in 10.0 mi SSE 4.6 mph - N/A   Clear
8:53 PM 64.9 °F - 59.0 °F 81% 30.13 in 10.0 mi Calm Calm - N/A   Overcast
9:53 PM 66.0 °F - 59.0 °F 78% 30.13 in 10.0 mi Calm Calm - N/A   Overcast
10:53 PM 64.9 °F - 60.1 °F 84% 30.13 in 10.0 mi Calm Calm - N/A   Overcast
11:53 PM 64.9 °F - 60.1 °F 84% 30.12 in 10.0 mi WSW 3.5 mph - N/A   Mostly Cloudy